Regional Weather Roundup
Issued by NWS

Home | Current Version | Previous Version | Graphics & Text | Print | Product List | Glossary On
Versions: 1 2 3 4 5 6 7 8 9 10 11 12 13 14 15 16 17 18 19 20 21 22 23 24 25 26 27 28 29 30 31 32 33 34 35 36 37 38 39 40 41 42 43 44 45 46 47 48 49 50
000
ASUS45 KCYS 200610
RWRWY

WYOMING REGIONAL WEATHER ROUNDUP
NATIONAL WEATHER SERVICE CHEYENNE WY
1200 AM MDT WED AUG 20 2014

NOTE:  "FAIR" INDICATES FEW OR NO CLOUDS BELOW 12,000 FEET
WITH NO SIGNIFICANT WEATHER AND/OR OBSTRUCTIONS TO VISIBILITY.

WYZ001-200700-
YELLOWSTONE NATIONAL PARK

CITY           SKY/WX    TMP DP  RH WIND       PRES   REMARKS
LK YELLOWSTONE   N/A     49  43  80 VRB5      30.13F
6HR MIN TEMP:  49; 6HR MAX TEMP:  61;

W YELLOWSTONE  NOT AVBL

$$
WYZ002>013-054>058-071-098>099-200700-
NORTHERN WYOMING

CITY           SKY/WX    TMP DP  RH WIND       PRES   REMARKS
JACKSON        CLOUDY    55  46  71 CALM      30.05R
CODY           CLOUDY    64  46  52 NE9       29.88R
GREYBULL       CLOUDY    73  45  36 W12       29.76S
6HR MIN TEMP:  73; 6HR MAX TEMP:  89; 6HR PCP: TRACE;

WORLAND        CLOUDY    71  49  45 W8        29.78R
6HR MIN TEMP:  70; 6HR MAX TEMP:  85; 6HR PCP: TRACE;

SHERIDAN       CLOUDY    72  45  37 CALM      29.74F
6HR MIN TEMP:  70; 6HR MAX TEMP:  87;

BUFFALO        CLOUDY    70  43  37 SW9       29.83R
6HR MIN TEMP:  70; 6HR MAX TEMP:  82;

GILLETTE       CLOUDY    78  41  26 SW18G24   29.75F
6HR MIN TEMP:  68; 6HR MAX TEMP:  89;

HULETT         FAIR      70  52  52 MISG      29.77
NEWCASTLE      FAIR      73  50  43 MISG      29.79

$$
WYZ014>020-022>026-101>103-200700-
CENTRAL WYOMING

CITY           SKY/WX    TMP DP  RH WIND       PRES   REMARKS
BIG PINEY      PTCLDY    47  41  80 SW3       30.05R
6HR MIN TEMP:  47; 6HR MAX TEMP:  63;

PINEDALE       CLOUDY    54  45  71 W8        30.05R
DUBOIS         LGT RAIN  52  45  76 W12       30.04F
LANDER         CLOUDY    64  45  49 NW8       29.87
6HR MIN TEMP:  64; 6HR MAX TEMP:  77;

RIVERTON       CLOUDY    67  41  38 W16       29.87S
6HR MIN TEMP:  67; 6HR MAX TEMP:  77;

CASPER         MOCLDY    64  46  52 CALM      29.90S
6HR MIN TEMP:  64; 6HR MAX TEMP:  79;

DOUGLAS        MOCLDY    70  45  40 W5        29.87R
6HR MIN TEMP:  66; 6HR MAX TEMP:  85;


$$
WYZ021-027>030-104>119-200700-
SOUTHERN WYOMING

CITY           SKY/WX    TMP DP  RH WIND       PRES   REMARKS
EVANSTON       CLOUDY    53  49  86 CALM      30.06R
6HR MIN TEMP:  52; 6HR MAX TEMP:  63;

KEMMERER       PTCLDY    50  43  76 N3        30.07R
FORT BRIDGER   FAIR      55  50  83 SW8       30.07F
ROCK SPRINGS   CLOUDY    55  49  80 SW8       30.03R
6HR MIN TEMP:  54; 6HR MAX TEMP:  61; 6HR PCP: TRACE;

DIXON          LGT RAIN  58  55  92 SW13      30.09S
RAWLINS        CLOUDY    62  48  60 SW13      30.02F
6HR MIN TEMP:  60; 6HR MAX TEMP:  65;

SARATOGA       CLOUDY    57  52  82 MISG      30.06S
LARAMIE        CLOUDY    55  52  89 S8        30.05S
6HR MIN TEMP:  54; 6HR MAX TEMP:  71; 6HR PCP:  0.06;

CHEYENNE       CLOUDY    62  51  67 W9        29.97F
6HR MIN TEMP:  62; 6HR MAX TEMP:  74;

TORRINGTON     CLOUDY    68  53  58 E9        29.82F
6HR MIN TEMP:  68; 6HR MAX TEMP:  82;

PINE BLUFFS    FAIR      61  52  72 S3        29.92F

$$


USA.gov is the U.S. government's official web portal to all federal, state and local government web resources and services.